Location: Slemon Park
(46.4340°N, 63.8219°W)
Time: 08:04:28
(UTC-03:00)

Daily predictions for brighter satellites

Satellite Brightness Start Highest point End
(mag) Time Altitude Azimuth Time Altitude Azimuth Time Altitude Azimuth
Atlas Centaur 2 4.3 21:24:13 10° SSW 21:28:50 17° SSE 21:33:41 10° ESE
Cosmos 2278 Rocket 3.7 21:24:43 10° NW 21:29:47 34° WSW 21:34:50 10° SSW
SJ-11-01 4.5 21:26:14 10° S 21:30:53 77° WSW 21:35:35 10° NNW
Meteor 1-15 Rocket 4.3 21:26:41 10° N 21:32:16 75° ENE 21:37:53 10° SSE
Cosmos 2228 3.1 21:34:26 10° N 21:38:52 81° E 21:43:17 10° SSE
COSMOS 2455 3.9 21:35:56 10° SSE 21:40:38 24° ESE 21:45:22 10° NE
Cosmos 494 Rocket 3.9 21:35:52 10° SSW 21:40:58 77° ESE 21:46:07 10° NNE
H-2A R/B 3.8 21:39:46 10° E 21:43:04 18° ENE 21:46:24 10° NNE
Cosmos 1025 Rocket 4.3 21:39:33 10° SSW 21:43:46 45° WNW 21:48:00 10° N
Cosmos 2369 Rocket 3.4 21:39:14 10° N 21:44:13 30° NE 21:49:08 10° ESE
Cosmos 2219 Rocket 4.3 21:40:52 10° WSW 21:45:55 33° NW 21:50:59 10° NNE
Nimbus 7 Rocket 4.4 21:40:08 10° NNE 21:46:08 71° ESE 21:52:01 10° S
Cosmos 1892 Rocket 4.3 21:43:17 10° SSW 21:47:40 59° WNW 21:52:07 10° N
Cosmos 1939 Rocket 3.2 21:44:10 10° S 21:48:19 71° WSW 21:52:29 10° NNW
Aureole 2 Rocket 2.6 21:44:32 10° S 21:48:24 59° ESE 21:51:57 10° NNE
SPOT 1/Viking Rocket 4.0 21:46:15 10° SE 21:51:12 48° ENE 21:56:09 10° N
SL-16 R/B 2.4 21:46:21 10° SSW 21:52:01 81° WNW 21:57:43 10° NNE
SPOT 5 2.6 21:48:27 10° SSE 21:52:54 88° ENE 21:57:15 10° NNW
ARGOS 3.8 21:47:53 10° SE 21:52:58 42° ENE 21:58:03 10° N
Cosmos 1666 3.1 21:51:00 10° NNW 21:54:54 68° W 21:58:46 10° S
Tsikada Rocket 4.1 21:52:02 10° S 21:58:22 64° E 22:04:40 10° NNE
Lacrosse 5 rocket 1.9 21:57:40 10° WSW 22:01:32 61° NW 22:05:39 10° NE
CZ-4 SHROUD 4.0 22:02:12 10° S 22:05:17 51° W 22:08:24 10° NNW
Lacrosse 5 3.7 22:01:25 10° W 22:06:03 34° NNW 22:10:41 10° NE
MetOp-B 4.2 22:07:49 10° SSE 22:13:11 83° WSW 22:18:35 10° NNW
SL-8 R/B 3.9 22:10:24 10° W 22:15:15 75° N 22:20:06 10° ENE
SeaSat 1 3.2 22:10:35 10° S 22:15:21 48° WSW 22:20:09 10° NW
UNK 4.2 22:10:57 10° NNE 22:16:20 81° ESE 22:21:57 10° SSW
CZ-4B R/B 3.5 22:12:11 10° NNE 22:17:13 69° ESE 22:22:22 10° S
Lacrosse 4 Rocket 3.3 22:18:45 12° ESE 22:18:45 12° ESE 22:20:16 10° E
SL-08 RB Rocket 3.9 22:17:07 16° SSE 22:20:36 57° ENE 22:25:03 10° N
Terra 2.9 22:17:27 15° ESE 22:20:41 32° ENE 22:24:54 10° N
Cosmos 1603 3.6 22:15:13 10° SSW 22:20:47 71° ESE 22:26:23 10° NNE
Cosmos 1238 4.1 22:21:42 14° S 22:24:24 74° E 22:27:24 10° NNE
Cosmos 1515 3.8 22:23:52 15° S 22:26:55 59° E 22:30:44 10° NNE
Cosmos 1346 Rocket 3.8 22:27:33 21° SE 22:29:14 29° E 22:32:39 10° NNE
Cosmos 1602 Rocket 4.3 22:26:43 10° SSW 22:31:07 55° WNW 22:35:32 10° N
Cosmos 1461 4.0 22:27:43 10° NW 22:31:43 37° WSW 22:34:38 15° S
Cosmos 1825 Rocket 3.7 22:33:20 18° SSE 22:36:32 57° E 22:40:54 10° NNE
ATLAS 3B R/B 3.5 22:30:37 10° S 22:37:30 37° ESE 22:44:15 10° NE
Cosmos 1634 Rocket 4.0 22:32:16 10° N 22:38:29 77° E 22:43:12 18° SSE
Cosmos 1812 Rocket 4.3 22:34:33 10° NNW 22:38:48 51° W 22:42:44 12° SSW
Cosmos 1943 3.4 22:41:51 14° S 22:46:29 49° ESE 22:51:58 10° NE
BREEZE-M DEB (TANK) 1.7 22:44:56 10° WSW 22:47:51 56° SSE 22:48:15 45° ESE
USA 234 3.8 22:43:14 18° SSE 22:47:53 46° SW 22:54:10 10° WNW
Cosmos 407 Rocket 4.1 22:47:15 22° SSE 22:49:59 39° ESE 22:54:49 10° NE
YAOGAN 6 4.0 22:50:25 14° SSW 22:53:15 34° W 22:56:43 10° NNW
USA 81 4.2 22:48:27 10° N 22:53:45 75° W 22:57:42 18° S
Cosmos 1943 Rocket 3.0 22:52:03 10° NNW 22:57:18 41° NE 23:00:44 20° ESE
Cosmos 2279 Rocket 4.0 22:58:04 10° N 23:04:19 72° E 23:08:06 25° SSE
Cosmos 1766 3.3 23:01:11 10° N 23:05:11 68° E 23:06:44 35° SSE
Atlas Centaur 2 3.9 23:10:52 10° SW 23:17:15 25° S 23:18:15 24° SSE
CZ-4C R/B 4.4 23:15:26 21° SSW 23:17:51 41° W 23:21:46 10° NNW
CZ-4B R/B 4.2 23:17:29 10° ENE 23:18:03 10° ENE 23:18:37 10° NE
Cosmos 2180 Rocket 4.5 23:13:36 10° N 23:19:53 79° E 23:23:24 28° SSE
Cosmos 1953 Rocket 3.8 23:18:28 22° SSW 23:21:12 67° W 23:25:38 10° N
H-2A R/B 2.1 23:19:20 28° S 23:21:55 69° WSW 23:26:59 10° NNW
SAR-Lupe-2 4.2 23:21:49 33° SSW 23:23:03 49° W 23:26:33 10° NNW
COSMOS 2455 3.2 23:20:07 10° SW 23:26:05 65° NW 23:32:06 10° NNE
Cosmos 2369 Rocket 2.7 23:23:01 10° NW 23:28:31 52° WSW 23:31:20 27° S
ISS -1.3 23:30:50 18° ENE 23:30:50 18° ENE 23:31:49 10° ENE
Cosmos 1570 Rocket 4.5 23:29:33 10° NNW 23:34:49 53° ENE 23:37:09 31° SE
Cosmos 1470 4.1 23:31:42 10° NNE 23:35:01 26° ENE 23:35:43 25° E
DMSP B5D2-2 4.1 23:31:22 10° NNE 23:36:41 83° WNW 23:39:47 26° SSW
Cosmos 1953 2.2 23:32:51 10° N 23:36:53 80° E 23:37:47 52° SSE
Spot 4 4.1 23:35:17 33° S 23:37:19 63° WSW 23:42:05 10° NNW
IGS 5A 4.0 23:36:44 33° SSW 23:38:14 49° W 23:42:18 10° NNW
Cosmos 2084 3.9 23:34:47 10° NNW 23:38:48 52° NE 23:40:23 33° ESE
Cosmos 2221 4.3 23:37:05 10° NNE 23:40:20 20° ENE 23:41:33 18° E
Cosmos 1805 3.2 23:37:31 10° N 23:41:29 74° E 23:42:15 54° SE
Lacrosse 5 rocket 4.0 23:38:17 10° WNW 23:41:32 22° NNW 23:44:55 10° NE
Cosmos 1190 Rocket 4.4 23:37:27 15° SW 23:41:52 64° WNW 23:47:11 10° NNE
Cosmos-2242 3.1 23:39:17 10° NNW 23:43:41 72° W 23:45:06 42° SSW
H-2A R/B 4.2 23:41:03 10° NE 23:43:19 17° E 23:43:19 17° E
Lacrosse 5 4.2 23:46:04 10° NW 23:50:12 24° N 23:54:21 10° ENE
COSMOS 2406 3.6 23:50:41 37° SE 23:52:07 44° ESE 23:57:32 10° NE
